This demonstration page uses our WeatherBlox Daily Observations layout. Learn more.

40.92945, -100.16068

Hourly Observations for September 25, 2020

Temp ( °F °C ) Dew Point ( °F °C ) Humidity (%) Winds ( mph kmh ) Pressure ( in mb ) Visibility ( mi km ) Precip ( " mm )
12:15 am 00:15 Clear 63 17.2 55 12.6 75 75 SSE 6 9 29.74 1007 10 16.0934 0 0
12:35 am 00:35 Clear 63 17.3 55 12.5 74 74 SE 5 7 29.74 1007 10 16.0934 0 0
12:55 am 00:55 Clear 64 17.5 55 12.7 74 74 ESE 5 7 29.72 1007 10 16.0934 0 0
1:15 am 01:15 Clear 58 14.5 54 12 85 85 E 3 6 29.75 1007 10 16.0934 0 0
1:35 am 01:35 Clear 58 14.5 54 12 85 85 E 3 6 29.75 1007 10 16.0934 0 0
1:55 am 01:55 Clear 57 13.9 53 11.7 87 87 ESE 3 6 29.76 1008 10 16.0934 0 0
2:15 am 02:15 Clear 56 13.6 53 11.4 87 87 Calm 29.77 1008 10 16.0934 0 0
2:35 am 02:35 Clear 55 13 52 11.1 88 88 Calm 29.77 1008 10 16.0934 0 0
2:55 am 02:55 Clear 57 13.8 52 11.2 84 84 SSE 3 6 29.76 1008 10 16.0934 0 0
3:15 am 03:15 Clear 58 14.2 52 10.9 81 81 Calm 29.74 1007 10 16.0934 0 0
3:35 am 03:35 Clear 54 12.3 50 10.1 87 87 Calm 29.76 1008 10 16.0934 0 0
3:55 am 03:55 Clear 53 11.6 50 10 90 90 Calm 29.77 1008 10 16.0934 0 0
4:15 am 04:15 Clear 53 11.8 50 10.2 90 90 Calm 29.75 1008 7 11.26538 0 0
4:35 am 04:35 Clear 53 11.4 50 9.8 90 90 Calm 29.77 1008 7 11.26538 0 0
4:55 am 04:55 Clear 52 11.2 49 9.6 90 90 Calm 29.77 1008 7 11.26538 0 0
5:15 am 05:15 Clear 52 11.2 49 9.7 91 91 Calm 29.77 1008 7 11.26538 0 0
5:35 am 05:35 Clear 52 11.3 49 9.6 89 89 Calm 29.76 1008 10 16.0934 0 0
5:55 am 05:55 Clear 53 11.9 49 9.5 85 85 Calm 29.76 1008 10 16.0934 0 0
6:15 am 06:15 Clear 53 11.5 49 9.3 86 86 Calm 29.77 1008 10 16.0934 0 0
6:35 am 06:35 Clear 52 11.1 49 9.2 88 88 Calm 29.77 1008 7 11.26538 0 0
6:55 am 06:55 Clear 51 10.7 47 8.6 87 87 Calm 29.77 1008 7 11.26538 0 0
7:15 am 07:15 Clear 51 10.8 47 8.6 86 86 WNW 5 7 29.77 1008 7 11.26538 0 0
7:35 am 07:35 Sunny 50 10.1 46 8 87 87 NW 12 19 29.8 1009 7 11.26538 0 0
7:55 am 07:55 Hazy 53 11.6 47 8.5 81 81 WNW 5 7 29.8 1009 5 8.0467 0 0
8:15 am 08:15 Sunny 53 11.4 48 9 85 85 WNW 5 7 29.8 1009 7 11.26538 0 0
8:35 am 08:35 Hazy 54 12.3 49 9.3 82 82 NW 6 9 29.79 1009 5 8.0467 0 0
8:55 am 08:55 Sunny 56 13.4 49 9.5 77 77 WNW 6 9 29.79 1009 10 16.0934 0 0
9:15 am 09:15 Sunny 57 14.1 49 9.7 75 75 NW 7 11 29.79 1009 10 16.0934 0 0
9:35 am 09:35 Sunny 59 15 49 9.7 71 71 WNW 6 9 29.79 1009 7 11.26538 0 0
9:55 am 09:55 Sunny 61 16.2 50 10 67 67 NW 7 11 29.79 1009 7 11.26538 0 0
10:15 am 10:15 Sunny 64 17.7 50 9.9 60 60 NW 6 9 29.78 1009 7 11.26538 0 0
10:35 am 10:35 Sunny 68 19.8 51 10.6 56 56 Calm 29.76 1008 10 16.0934 0 0
10:55 am 10:55 Sunny 74 23.5 50 10 43 43 N 9 15 29.72 1007 10 16.0934 0 0
11:15 am 11:15 Sunny 76 24.5 51 10.4 41 41 N 12 19 29.72 1007 10 16.0934 0 0
11:35 am 11:35 Sunny 77 25.2 51 10.6 40 40 NNE 12 19 29.71 1006 10 16.0934 0 0
11:55 am 11:55 Sunny 78 25.7 51 10.5 38 38 N 12 19 29.7 1006 10 16.0934 0 0
12:15 pm 12:15 Sunny 80 26.4 51 10.4 37 37 NNE 9 15 29.7 1006 10 16.0934 0 0
12:35 pm 12:35 Sunny 80 26.8 50 10.2 35 35 N 10 17 29.7 1006 10 16.0934 0 0
12:55 pm 12:55 Sunny 81 27.4 50 10 34 34 N 7 11 29.69 1005 10 16.0934 0 0
1:15 pm 13:15 Sunny 83 28.2 51 10.4 33 33 N 10 17 29.67 1005 10 16.0934 0 0
1:35 pm 13:35 Sunny 82 27.9 50 9.8 32 32 N 6 9 29.68 1005 10 16.0934 0 0
1:55 pm 13:55 Sunny 83 28.2 51 10.3 33 33 NE 8 13 29.66 1005 10 16.0934 0 0
2:15 pm 14:15 Sunny 83 28.5 50 9.8 31 31 N 9 15 29.66 1004 10 16.0934 0 0
2:35 pm 14:35 Sunny 84 28.9 50 9.9 31 31 NNE 7 11 29.65 1004 10 16.0934 0 0
2:55 pm 14:55 Sunny 85 29.2 50 9.8 30 30 NNE 5 7 29.65 1004 10 16.0934 0 0
3:15 pm 15:15 Sunny 85 29.2 50 9.9 30 30 N 8 13 29.65 1004 10 16.0934 0 0
3:35 pm 15:35 Sunny 85 29.6 50 9.9 29 29 NNE 9 15 29.64 1004 10 16.0934 0 0
3:55 pm 15:55 Sunny 85 29.5 50 9.8 29 29 NE 8 13 29.64 1004 10 16.0934 0 0
4:15 pm 16:15 Sunny 85 29.2 49 9.6 29 29 NE 7 11 29.65 1004 10 16.0934 0 0
4:35 pm 16:35 Sunny 85 29.4 49 9.6 29 29 ENE 6 9 29.64 1004 10 16.0934 0 0
4:55 pm 16:55 Sunny 84 29 51 10.5 32 32 ENE 7 11 29.64 1004 7 11.26538 0 0
5:15 pm 17:15 Hazy 84 29 51 10.7 32 32 ENE 6 9 29.65 1004 3 4.82802 0 0
5:35 pm 17:35 Sunny 84 28.7 51 10.6 32 32 ENE 6 9 29.65 1004 7 11.26538 0 0
5:55 pm 17:55 Sunny 83 28.1 52 11.3 35 35 ENE 3 6 29.66 1004 7 11.26538 0 0
6:15 pm 18:15 Hazy 81 27.4 53 11.9 38 38 ENE 5 7 29.66 1004 5 8.0467 0 0
6:35 pm 18:35 Hazy 79 26.2 55 12.8 43 43 ENE 6 9 29.67 1005 5 8.0467 0 0
6:55 pm 18:55 Sunny 77 25.2 55 12.9 46 46 ENE 5 7 29.69 1005 7 11.26538 0 0
7:15 pm 19:15 Sunny 76 24.6 53 11.8 45 45 NE 6 9 29.69 1006 7 11.26538 0 0
7:35 pm 19:35 Clear 73 22.7 53 11.7 50 50 NE 6 9 29.71 1006 7 11.26538 0 0
7:55 pm 19:55 Clear 71 21.5 52 11.3 52 52 ENE 6 9 29.72 1006 10 16.0934 0 0
8:15 pm 20:15 Clear 68 20.1 52 11.1 56 56 ENE 6 9 29.73 1007 7 11.26538 0 0
8:35 pm 20:35 Clear 66 18.9 51 10.7 59 59 ENE 7 11 29.73 1007 10 16.0934 0 0
8:55 pm 20:55 Clear 65 18.3 51 10.8 62 62 ENE 6 9 29.74 1007 10 16.0934 0 0
9:15 pm 21:15 Hazy 63 17.2 52 10.9 67 67 ENE 5 7 29.75 1007 2 3.21868 0 0
9:35 pm 21:35 Hazy 62 16.9 51 10.8 67 67 ENE 5 7 29.75 1007 3 4.82802 0 0
9:55 pm 21:55 Clear 60 15.7 50 9.8 68 68 Calm 29.76 1008 10 16.0934 0 0
10:15 pm 22:15 Clear 59 15 49 9.5 70 70 Calm 29.77 1008 10 16.0934 0 0
10:35 pm 22:35 Clear 58 14.2 50 10.1 77 77 Calm 29.76 1008 10 16.0934 0 0
10:55 pm 22:55 Clear 57 14 49 9.5 75 75 Calm 29.76 1008 10 16.0934 0 0
11:15 pm 23:15 Clear 58 14.6 49 9.3 71 71 Calm 29.75 1007 10 16.0934 0 0
11:35 pm 23:35 Clear 55 13 49 9.7 81 81 Calm 29.76 1008 7 11.26538 0 0
11:55 pm 23:55 Clear 55 12.6 50 10.1 85 85 Calm 29.76 1008 10 16.0934 0 0

Powered by AerisWeather